Location: Newark
(55.8429°N, 38.1995°E)
Time: 21:37:10
(UTC+00:00)

ISS - Pass Details

Date: 01 November 2019
Orbit: 412 x 421 km, 51.6° (Epoch: 17 November)

Event Time Altitude Azimuth Distance (km) Brightness Sun altitude
Exits shadow 01:38:44 21° 135° (SE) 1,005 -1.5 -24.6°
Drops below altitude 10° 01:40:44 10° 102° (ESE) 1,510 -0.1 -24.4°
Sets 01:43:06 0° 87° (E) 2,376 1.5 -24.0°
